Tracking 31027 objects as of 19-Jul-2025
HD Live streaming from Space Station
objects crossing your sky now

CENTISPACE-1 S4

Track CENTISPACE-1 S4 now!
10-day predictions


NORAD ID: 53758
Int'l Code: 2022-108B
Perigee: 689.5 km
Apogee: 703.4 km
Inclination: 53.5 °
Period: 98.5 minutes
Semi major axis: 7067 km
RCS: Unknown
Launch date: September 6, 2022
Source: People's Republic of China (PRC)
Launch site: Jiuquan Satellite Launch Center, China (JSC)
Your satellite tracking list
Your tracking list is empty




NASA's NSSDC Master Catalog

Two Line Element Set (TLE):
1 53758U 22108B   25199.88933363  .00000550  00000-0  14886-3 0  9990
2 53758  53.5316 351.8276 0009795 154.7956 205.3499 14.61192138152828
Source of the keplerian elements: AFSPC